|
Cosmos 1154 Rocket - Orbit
|
Astronight Observatory;
12:54:23
| Home | Info | Passes |
|
View from above orbital plane
|
View from above satellite
|
Ground track
|
The orbit data is extracted from the following two-line orbital elements,
1 11683U 80008B 13139.82726044 .00020540 00000-0 35876-3 0 225
2 11683 081.1804 158.8445 0016228 015.0970 345.0757 15.50384330830980
| Epoch (UTC): | 19 May 2013 19:51:15 |
| Eccentricity: | 0.0016228 |
| inclination: | 81.1804° |
| perigee height: | 404 km |
| apogee height: | 426 km |
| right ascension of ascending node: | 158.8445° |
| argument of perigee: | 15.0970° |
| revolutions per day: | 15.50384330 |
| mean anomaly at epoch: | 345.0757° |
| orbit number at epoch: | 83098 |
The dashed part of the orbit path shows where the satellite is in the earth's shadow,
|
|